Home   Weather   Niterói   Past weeks
Flag for Brazil

Past Weather in Niterói, Rio de Janeiro, Brazil — Yesterday and Last 2 Weeks

Now
79 °F

Clear.


Feels Like: 82 °F
Forecast: N/A
Wind: 7 mph from South

Location: Rio De Janeiro Airport

Current Time: Sep 20, 2019 at 5:40:05 pm

Latest Report: Sep 20, 2019 at 5:00 pm


Visibility: 5 mi

Pressure: 29.83 "Hg

Humidity: 89%

Dew Point: 75 °F

Location of NiteróiLocation

Past Weather in Niterói — Graph

°F

Niterói Temperature Yesterday

Maximum temperature yesterday: 84 °F (at 12:00 pm)
Minimum temperature yesterday: 73 °F (at 1:00 am)
Average temperature yesterday: 77 °F

High & Low Weather Summary for the Past Weeks

 TemperatureHumidityPressure
High93 °F (Sep 18, 12:00 pm)100% (Sep 5, 5:00 pm)30.36 "Hg (Sep 5, 5:00 pm)
Low64 °F (Sep 5, 5:00 pm)49% (Sep 17, 12:00 pm)29.65 "Hg (Sep 18, 2:00 pm)
Average76 °F85%29.99 "Hg
* Reported Sep 5 4:00 pm — Sep 20 4:00 pm, Niterói. Weather by CustomWeather, © 2019

Note: Actual official high and low records may vary slightly from our data, if they occured in-between our weather recording intervals... More about our weather records

Advertising

Niterói Weather History for the Previous 24 Hours

Scroll right to see more
 ConditionsComfort  
Time TempWeatherWind HumidityBarometerVisibility
4:00 pm
Fri, Sep 20
81 °FClear.6 mph84%29.83 "Hg5 mi
3:00 pm79 °FPartly sunny.10 mph89%29.83 "Hg5 mi
2:00 pm81 °FScattered clouds.10 mph84%29.86 "Hg5 mi
1:00 pm84 °FScattered clouds.5 mph74%29.86 "Hg5 mi
12:00 pm82 °FPartly sunny.3 mph79%29.89 "Hg5 mi
11:15 am86 °FPassing clouds.6 mph62%29.92 "Hg5 mi
11:00 am86 °FPassing clouds.5 mph66%29.92 "Hg4 mi
10:00 am84 °FPassing clouds.15 mph70%29.89 "Hg4 mi
9:00 am82 °FClear.9 mph79%29.86 "Hg4 mi
8:00 am79 °FPassing clouds.2 mph84%29.86 "Hg4 mi
7:00 am75 °FScattered clouds.6 mph94%29.83 "Hg4 mi
6:00 am73 °FPartly sunny.6 mph100%29.83 "Hg4 mi
5:00 am73 °FPassing clouds.7 mph100%29.80 "Hg4 mi
4:00 am73 °FPassing clouds.6 mph100%29.80 "Hg4 mi
3:00 am73 °FPassing clouds.5 mph100%29.80 "Hg4 mi
2:00 am73 °FPassing clouds.3 mph100%29.80 "Hg4 mi
1:00 am73 °FPassing clouds.6 mph100%29.80 "Hg4 mi
12:00 am73 °FPassing clouds.7 mph100%29.83 "Hg5 mi
11:00 pm
Thu, Sep 19
75 °FPassing clouds.8 mph94%29.86 "Hg5 mi
10:00 pm75 °FPassing clouds.9 mph94%29.89 "Hg5 mi
9:00 pm75 °FPassing clouds.8 mph94%29.89 "Hg5 mi
8:00 pm75 °FPassing clouds.15 mph94%29.86 "Hg5 mi
7:00 pm77 °FPassing clouds.7 mph89%29.80 "Hg5 mi
6:00 pm77 °FPassing clouds.8 mph89%29.77 "Hg5 mi
5:00 pm79 °FClear.9 mph74%29.77 "Hg6 mi
Weather by CustomWeather, © 2019

See weather overview